Location: *
(60.1759°S, 155.0663°W)
Time: 12:16:09
(UTC+00:00)

Cosmos 1633 Rocket - Pass Details

Date: 17 September 2019
Orbit: 606 x 625 km, 82.5° (Epoch: 15 October)

Event Time Altitude Azimuth Distance (km) Brightness Sun altitude
Exits shadow 13:52:35 39° 328° (NNW) 938 3.5 -18.8°
Maximum altitude 13:54:08 72° 254° (WSW) 662 3.0 -18.7°
Drops below altitude 10° 13:58:36 10° 168° (SSE) 2,016 6.2 -18.2°
Sets 14:00:52 0° 166° (SSE) 2,931 7.2 -17.9°
